www.pogodaiklimat.ru

Погода и климат >> Архив погоды >> Узбекистан >> Ташкент


АРХИВ ПОГОДЫ в Ташкенте

Время (UTC), дата Ветер
(напр.,м/с)
 
Видим.   Явления Облачность Т
(С)
Тd
(С)
f
(%)
Тe
(С)
Тes
(С)
Комфортность P
(гПа)
Po
(гПа)
Тmin
(С)
Tmax
(С)
R
(мм)
R24
(мм)
S
(см)
12 12.01 штиль 0 50 км 1/1 1000 м
[Cu hum]
+5.8 +0.4 68 +5 +5 по сезону 1030.4 971.0
15 12.01 СВ 1 10 км ясно +2.9 -1.0 75 +2 +2 по сезону 1031.1 971.1 +6.4
18 12.01 С 1 10 км ясно +1.2 -3.3 72 -0 -0 по сезону 1030.2 969.8 +6.4 0.1
21 12.01 СЗ 2 10 км ясно +1.1 -6.1 59 -2 -2 по сезону 1028.7 968.4
00 13.01 СВ 1 10 км ясно +0.9 -7.2 55 -0 -0 по сезону 1027.8 967.5
03 13.01 СВ 1 50 км 3/0
[Ac lent]
+0.2 -8.7 51 -1 -1 по сезону 1027.8 967.3
06 13.01 СВ 2 50 км 6/0
[Ci fib]
+6.7 -9.7 30 +5 +9 по сезону 1025.2 966.2 -0.3
09 13.01 СВ 2 50 км 4/0
[Ci fib]
+10.3 -9.4 24 +10 +13 тепло 1022.0 963.9
12 13.01 СВ 1 50 км 8/0
[Ci fib]
+8.3 -8.3 30 +8 +8 тепло 1020.8 962.4
15 13.01 ЮЗ 1 10 км 3/0
[Ci fib]
+3.3 -10.9 34 +3 +3 по сезону 1021.5 962.0 +10.9
18 13.01 С 1 10 км 9/0
[Ac lent Ci]
+4.2 -11.6 31 +4 +4 тепло 1020.2 961.0 +10.9
21 13.01 СВ 2 10 км 4/0
[Ci fib]
+4.5 -11.6 30 +3 +3 по сезону 1018.8 959.8
00 14.01 В 1 10 км 8/0
[Ac lent Ci]
+4.5 -13.5 26 +4 +4 тепло 1017.4 958.4
03 14.01 В 2 10 км 4/0
[Ac lent Ci fib]
+5.2 -14.6 22 +4 +4 по сезону 1016.4 957.6
06 14.01 СВ 2 50 км 8/0
[Ci fib]
+10.1 -15.7 15 +10 +13 тепло 1015.5 957.8 +2.1
09 14.01 СВ 1 50 км 9/0
[Ac lent Ci]
+14.4 -13.9 13 +15 +17 тепло 1011.8 955.1
12 14.01 С 3 50 км 9/8 1000 м
[Sc Ac lent]
+11.8 -12.7 17 +11 +11 тепло 1011.9 954.7
15 14.01 С 2 10 км 9/0
[Ac lent Ci]
+11.6 -11.7 18 +11 +11 тепло 1010.4 953.3 +15.5
18 14.01 Ю 1 10 км 10/10 600 м
[Sc]
+11.8 -7.8 25 +12 +12 тепло 1009.3 952.2 +15.5
21 14.01 СВ 1
{18}
10 км слаб. дождь 10/10 300 м
[Sc As op]
+8.6 +2.1 64 +8 +8 тепло 1014.4 956.5
00 15.01 В 1 10 км {ливн. осадки, дождь} 9/6 600 м
[Sc Ac lent]
+8.8 +2.1 63 +8 +8 тепло 1011.3 953.6
06 15.01 СВ 1 50 км {дождь} 10/10 1000 м
[Sc]
+9.0 +3.4 68 +9 +9 тепло 1010.8 953.3
09 15.01 ЮВ 2 4000 м дождь 10/10 600 м
[Frnb Ns]
+8.6 +6.8 88 +7 +7 тепло 1014.1 956.3
12 15.01 ЮВ 2 10 км слаб. дождь 10/10 600 м
[Frnb Ns]
+7.2 +5.5 89 +5 +5 по сезону 1017.0 958.7
15 15.01 ЮВ 2 10 км слаб. дождь 10/10 300 м
[Frnb Ns]
+7.2 +6.1 93 +5 +5 тепло 1018.6 960.2 +9.4
18 15.01 СВ 1 10 км в посл. час дождь 10/10 300 м
[Frnb Ns]
+7.3 +6.2 93 +6 +6 тепло 1019.4 961.1 +9.4 9
21 15.01 С 1 10 км 10/10 300 м
[Frnb Ns]
+6.3 +4.9 91 +5 +5 тепло 1019.7 961.2
00 16.01 штиль 0 10 км 9/9 600 м
[Sc As op]
+5.7 +4.1 89 +5 +5 тепло 1020.1 961.3
03 16.01 Ю 1 200 м туман ?/? +5.2 +5.0 99 +4 +4 по сезону 1021.6 962.6
06 16.01 штиль 0 1000 м дымка {туман} 10/10 300 м
[St]
+6.4 +4.3 86 +5 +5 по сезону 1022.8 964.0 +5.0 0.3
09 16.01 В 1 4000 м дымка 9/9 300 м
[Sc]
+8.5 +5.1 79 +8 +8 тепло 1021.0 962.8
12 16.01 СВ 1 4000 м дымка 8/0
[Ac trans Ci fib]
+7.6 +4.6 81 +7 +7 тепло 1021.9 963.4
15 16.01 С 2 4000 м дымка ясно +6.3 +4.0 85 +4 +4 по сезону 1022.0 963.2 +8.8
18 16.01 С 1 10 км ясно +5.0 -0.6 67 +4 +4 тепло 1021.6 962.5 +8.8
21 16.01 С 2 10 км ясно +5.0 -4.0 52 +3 +3 по сезону 1020.5 961.5
00 17.01 С 2 10 км ясно +5.6 -5.1 46 +4 +4 тепло 1020.4 961.5
03 17.01 СВ 3 10 км 3/0
[Ci fib]
+6.0 -6.6 40 +4 +4 по сезону 1019.7 960.9
06 17.01 В 3 50 км 1/0
[Ci fib]
+10.8 -5.4 32 +9 +13 тепло 1018.6 960.8 +4.8
09 17.01 В 3 50 км 1/0
[Ci fib]
+13.7 -4.1 29 +13 +16 тепло 1015.6 958.5
12 17.01 СВ 3 50 км 4/0
[Ci fib]
+11.4 -7.4 26 +10 +10 тепло 1014.5 957.1
15 17.01 СВ 3 50 км ясно +8.0 -8.2 31 +6 +6 тепло 1014.0 956.0 +14.1
18 17.01 СВ 4 10 км 8/0
[Ac lent Ci fib]
+8.0 -10.7 25 +6 +6 тепло 1011.7 953.8 +14.1
21 17.01 СВ 4 10 км 8/0
[Ac lent Ci fib]
+8.0 -10.7 25 +6 +6 тепло 1011.7 953.8 +14.1
00 18.01 СВ 3 10 км 3/0
[Ci fib]
+8.0 -11.7 23 +6 +6 тепло 1008.3 950.6
03 18.01 СВ 2 50 км 9/0
[Ac lent Ci fib]
+9.0 -12.2 21 +8 +8 тепло 1006.7 949.2
06 18.01 С 2 50 км 9/8 1000 м
[Sc Ac lent]
+12.1 -10.3 20 +12 +12 тепло 1006.8 950.0 +7.3
09 18.01 СВ 2 50 км 10/10 1000 м
[Sc]
+7.9 -2.2 49 +6 +6 тепло 1009.9 952.1
12 18.01 В 1 10 км слаб. дождь 10/10 600 м
[Sc]
+10.6 -2.5 40 +11 +11 тепло 1009.7 952.4
15 18.01 СВ 1 10 км {дождь} 10/10 600 м
[Sc]
+10.1 +3.8 65 +10 +10 тепло 1013.1 955.6 +12.5
18 18.01 В 1 10 км слаб. дождь 10/10 600 м
[Sc As op]
+9.0 +5.5 79 +8 +8 тепло 1015.7 957.9 +12.5 0.3
21 18.01 СВ 1 10 км слаб. дождь 10/10 600 м
[Sc As op]
+8.1 +7.0 93 +7 +7 тепло 1018.7 960.5
00 19.01 штиль 0 10 км {дождь} 10/10 600 м
[Sc]
+7.4 +5.6 88 +6 +6 тепло 1018.0 959.7
03 19.01 З 1 10 км 9/9 1000 м
[Sc Ac lent]
+7.1 +4.3 82 +6 +6 тепло 1017.2 958.9
06 19.01 З 4 10 км 4/3 1000 м
[Cu hum Ci fib]
+7.7 -0.9 54 +5 +7 по сезону 1018.5 960.2 +6.8 3
09 19.01 З 2 10 км 3/3 1000 м
[Cu hum]
+11.3 +3.4 58 +10 +13 тепло 1016.1 958.6

 

Местоположение метеостанции Ташкент (Ташкентская область, Узбекистан): широта 41.27 долгота 69.27 высота над уровнем моря 466 м.

В архиве по умолчанию представлена погода в Ташкенте за последнюю неделю. Архивные данные за месяц целиком и за предыдущие месяцы, начиная с января 2011 года, Вы можете получить, выбрав интересующий диапазон дат из раскрывающегося списка и нажав кнопку "Ввод!".


*Определитесь, кто Вы:
робот инопланетянин человек

Внимание! Время в таблицах - всемирное. Для получения местного времени необходимо прибавить поправку, которая равна 5 ч.

Смотрите также архив погоды в соседних городах и на ближайших метеорологических станциях:

Погода в Каунчи (Ташкентская область, Узбекистан) (31 км)
Погода в Туябугузе (Ташкентская область, Узбекистан) (37 км)
Погода в Келесе (Южно-Казахстанская область, Казахстан) (38 км)
Погода в Красноярской (Южно-Казахстанская область, Казахстан) (54 км)
Погода в Казыгурте (Южно-Казахстанская область, Казахстан) (55 км)
Погода в Дуканте (Ташкентская область, Узбекистан) (68 км)
Погода в Чимгане (Ташкентская область, Узбекистан) (70 км)
Погода в Сырдарье (Сырдарьинская область, Узбекистан) (70 км)
Погода в Ангрене (Ташкентская область, Узбекистан) (82 км)
Погода в Жетысае (Южно-Казахстанская область, Казахстан) (96 км)

Пояснения к столбцам:

Ветер - указаны скорость ветра в м/с - средняя за 10 мин, порывы в срок и между сроками (в фигурных скобках) и направление, откуда дует ветер: С - северный, СВ - северо-восточный, В - восточный, ЮВ - юго-восточный, Ю - южный, ЮЗ - юго-западный, З - западный, СЗ - северо-западный.
Видимость - горизонтальная дальность видимости в метрах или километрах. При видимости от 1 до 10 км при отсутствии осадков обычно наблюдается дымка, при ухудшении видимости до 1 км и менее - туман. В сухую погоду видимость может ухудшаться дымом, пылью или мглою.
Явления - указаны атмосферные явления, наблюдавшиеся в срок или в последний час перед сроком; фигурными скобками обозначены явления, наблюдавшиеся между сроками (за 1-3 часа до срока); квадратными скобками обозначены град или гололедные отложения с указанием их диаметра в мм.
Облачность - указаны через наклонную черту общая и нижняя облачность в баллах и высота нижней границы облаков в метрах; квадратными скобками обозначены формы облаков: Ci - перистые, Cs - перисто-слоистые, Cc - перисто-кучевые, Ac - высококучевые, As - высокослоистые, Sc - слоисто-кучевые, Ns - слоисто-дождевые, Cu - кучевые, Cb - кучево-дождевые. Подробнее классификацию облаков см. в Атласе облаков (PDF).
T - Температура воздуха - температура, измеренная на высоте 2 м над землей.
Td - Температура точки росы - температура, при понижении до которой содержащийся в воздухе водяной пар достигнет насыщения.
f - Относительная влажность воздуха - влажноcть воздуха, измеренная на высоте 2 м над землей.
Te - Эффективная температура - температура, которую ощущает одетый по сезону человек в тени. Характеристика душности погоды. При расчете учитывается влияние влажности воздуха и скорости ветра на теплоощущения человека.
Tes - Эффективная температура на солнце - температура, которую ощущает человек, с поправкой на солнечный нагрев. Характеристика знойности погоды. Зависит от высоты солнца над горизонтом, облачности и скорости ветра. Ночью, в пасмурную погоду, а также при ветре 12 м/с и более поправка равна нулю.
P - Атмосферное давление - приведенное к уровню моря атмосферное давление.
Po - Атмосферное давление - измеренное на уровне метеостанции атмосферное давление.
Tmin - Минимальная температура - минимум температуры воздуха на высоте 2 м над землей.
Tmax - Максимальная температура - максимум температуры воздуха на высоте 2 м над землей.
R - Количество осадков - Количество выпавших осадков за период времени, мм. При наведении курсора мыши на число - период времени, за который выпало указанное количество осадков.
R24 - Количество осадков - Количество выпавших осадков за 24 часа, мм.
S - Снежный покров - Высота снежного покрова, см. При наведении курсора мыши на число - состояние снежного покрова и степень покрытия местности в баллах.